Regional Weather Roundup
Issued by NWS

Home | Current Version | Previous Version | Text Only | Print | Product List | Glossary Off
Versions: 1 2 3 4 5 6 7 8 9 10 11 12 13 14 15 16 17 18 19 20 21 22 23 24 25 26 27 28 29 30 31 32 33 34 35 36 37 38 39 40 41 42 43 44 45 46 47 48 49 50

150
ASUS43 KOAX 290002
RWRNE

WEATHER ROUNDUP FOR NEBRASKA
NATIONAL WEATHER SERVICE OMAHA NE
700 PM CDT FRI APR 28 2017

NOTES: SATELLITE DATA IS BEING USED TO AUGMENT CLOUD COVER ABOVE
       12000 FEET.
       "FAIR" INDICATES FEW OR NO CLOUDS BELOW 12,000 FEET WITH NO
       SIGNIFICANT WEATHER AND/OR OBSTRUCTIONS TO VISIBILITY.

  * THESE STATIONS DO NOT REPORT WEATHER SUCH AS RAIN...SNOW OR FOG.

NEZ001>004-019>022-054>056-290100-
NEBRASKA PANHANDLE

CITY           SKY/WX    TMP DP  RH WIND       PRES   REMARKS
SCOTTSBLUFF    LGT SNOW  34  32  92 N5        30.03R FOG     WCI  30
6HR MIN TEMP:  33; 6HR MAX TEMP:  35; 6HR PCP:  0.11;

ALLIANCE       LGT SNOW  34  31  88 NE10      30.01R FOG     WCI  26
6HR MIN TEMP:  33; 6HR MAX TEMP:  37; 6HR PCP:  0.23;

CHADRON        CLOUDY    43  29  57 NE9       30.04R
6HR MIN TEMP:  36; 6HR MAX TEMP:  44; 6HR PCP:  0.01;

KIMBALL        MIX PCPN  32  32  99 NE14      29.97R WCI  22
SIDNEY         CLOUDY    33  31  92 NE16      29.97R WCI  23
6HR MIN TEMP:  33; 6HR MAX TEMP:  36; 6HR PCP: TRACE;

$$

NEZ057>060-069>072-079>082-290100-
SOUTHWEST NEBRASKA

CITY           SKY/WX    TMP DP  RH WIND       PRES   REMARKS
NORTH PLATTE   CLOUDY    38  32  79 NE12      29.99R WCI  30
6HR MIN TEMP:  36; 6HR MAX TEMP:  40; 6HR PCP:  0.02;

IMPERIAL       CLOUDY    38  32  79 NE16      29.94S WCI  29
6HR MIN TEMP:  37; 6HR MAX TEMP:  40;

LEXINGTON      CLOUDY    38  34  85 NE15      29.97R WCI  30
MCCOOK         CLOUDY    38  36  92 NE17      29.91S WCI  28
6HR MIN TEMP:  38; 6HR MAX TEMP:  40;

OGALLALA       CLOUDY    39  34  82 NE10      29.98R WCI  32
$$

NEZ005>010-023>029-035>040-094-290100-
NORTH CENTRAL NEBRASKA

CITY           SKY/WX    TMP DP  RH WIND       PRES   REMARKS
VALENTINE      CLOUDY    48  23  37 NE17      30.01R
6HR MIN TEMP:  43; 6HR MAX TEMP:  50;

AINSWORTH      CLOUDY    44  28  53 NE12      30.00R
BROKEN BOW     CLOUDY    38  34  85 NE13      29.98R WCI  30
6HR MIN TEMP:  34; 6HR MAX TEMP:  39; 6HR PCP:  0.01;

O`NEILL        CLOUDY    46  27  48 NE14      30.00R
ORD            CLOUDY    39  33  79 N12       29.98R WCI  32
6HR MIN TEMP:  35; 6HR MAX TEMP:  39; 6HR PCP:  0.01;

THEDFORD       CLOUDY    39  35  84 E5        30.01R
$$

NEZ041-046>049-061>064-073>077-083>087-290100-
SOUTH CENTRAL NEBRASKA

CITY           SKY/WX    TMP DP  RH WIND       PRES   REMARKS
GRAND ISLAND   CLOUDY    38  38 100 NE14      29.96R FOG     WCI  30
6HR MIN TEMP:  36; 6HR MAX TEMP:  38; 6HR PCP:  0.04;

AURORA         CLOUDY    38  37  97 NE17G24   29.95R WCI  29
HASTINGS       CLOUDY    38  36  92 NE20      29.94R FOG     WCI  28
6HR MIN TEMP:  38; 6HR MAX TEMP:  39; 6HR PCP: TRACE;

HEBRON         CLOUDY    41  40  95 N18       29.90R
HOLDREGE       CLOUDY    37  35  93 NE18G25   29.93S WCI  27
KEARNEY *      CLOUDY    37  34  87 NE14      29.96R WCI  29
YORK           PTSUNNY   39  39 100 NE22      29.94R WCI  29
$$

NEZ011>018-030>034-042>045-290100-
NORTHEAST NEBRASKA

CITY           SKY/WX    TMP DP  RH WIND       PRES   REMARKS
NORFOLK        CLOUDY    42  34  73 N10       29.95R
6HR MIN TEMP:  35; 6HR MAX TEMP:  42; 6HR PCP:  0.05;

ALBION         CLOUDY    42  34  73 NE8G16    29.97R
BLAIR          DRIZZLE   40  39  95 N14       29.93S WCI  33
FREMONT        CLOUDY    40  40  99 N9        29.95F FOG     WCI  34
TEKAMAH        LGT RAIN  42  38  85 N9        29.97R
6HR MIN TEMP:  40; 6HR MAX TEMP:  43; 6HR PCP:  0.02;

WAYNE          CLOUDY    45  35  69 NE10      29.97R
$$

NEZ050>053-065>068-078-088>093-290100-
SOUTHEAST NEBRASKA

CITY           SKY/WX    TMP DP  RH WIND       PRES   REMARKS
LINCOLN        CLOUDY    41  39  93 N16G23    29.93R
6HR MIN TEMP:  41; 6HR MAX TEMP:  42; 6HR PCP:  0.04;

OMAHA EPPLEY   DRIZZLE   42  38  85 N12       29.94R FOG
6HR MIN TEMP:  40; 6HR MAX TEMP:  42; 6HR PCP:  0.02;

BEATRICE       CLOUDY    42  39  91 NE15G21   29.90R
FALLS CITY     CLOUDY    44  42  93 NE13      29.85R
6HR MIN TEMP:  44; 6HR MAX TEMP:  45;

NEBRASKA CITY  CLOUDY    41  41 100 NE15G22   29.88R FOG
PLATTSMOUTH    CLOUDY    40  38  91 N9        29.90S FOG     WCI  35
$$

NEZ044-045-051>053-067-290100-
OMAHA AREA

CITY           SKY/WX    TMP DP  RH WIND       PRES   REMARKS
OMAHA EPPLEY   DRIZZLE   42  38  85 N12       29.94R FOG
6HR MIN TEMP:  40; 6HR MAX TEMP:  42; 6HR PCP:  0.02;

BLAIR          DRIZZLE   40  39  95 N14       29.93S WCI  33
FREMONT        CLOUDY    40  40  99 N9        29.95F FOG     WCI  34
MILLARD        DRIZZLE   43  41  93 N6        29.93S
OFFUTT AFB     LGT RAIN  41  39  92 N9        29.91R FOG
PLATTSMOUTH    CLOUDY    40  38  91 N9        29.90S FOG     WCI  35
WAHOO          CLOUDY    40  38  93 N18       29.93S FOG     WCI  31
$$




USA.gov is the U.S. government's official web portal to all federal, state and local government web resources and services.